Domov               UVHVVR             MKGP            O straneh              
ZDRAVSTVENO VARSTVO RASTLIN
  MREŽA AGROMET. POSTAJ
 ► PROGNOSTIČNA OBVESTILA
AGROMETEOROLOŠKI PODATKI -
ARSO
OBVLADOVANJE TVEGANJ ZARADI
NEUGODNIH VREMENSKIH RAZMER
  ► NARAVNE NESREČE
  ► SUŠA/MOČA
  ► NAMAKANJE
  ► ŽLED (gozdarstvo)
KARTOGRAFSKI PRIKAZI
SPLETNE POVEZAVE
PROJEKTI IN PUBLIKACIJE

AGROMETEOROLOŠKA MREŽA: VREMENSKE POSTAJE IN FENOLOŠKA OPAZOVANJA

Pregled podatkov za lokacijo Dravinjski vrh, meteorološka postaja 57108

Pregled senzorjev na lokaciji

ID Ime Zadnja
vrednost
Datum
zadnje
spremembe
Tip
senzorja
3999 Padavine (mm) 0 mm 11.12.2017 10:00 Generic 0.2 mm
4000 Omočenost lista (U) 0 U 11.12.2017 10:00 A730WET
4001 Temperatura 2 m (°C) 8,56 °C 11.12.2017 10:00 Generic -40 - +60 °C
4002 Relativna vlaga 2 m (% RH) 67,97 % RH 11.12.2017 10:00 Generic 0 - 100 %

Pregled podatkov zadnjih 24 ur

Zap.
št.
Datum in čas Dravinjski vrh
Omočenost
lista
Padavine Relativna
vlaga
2
m
Temperatura
2
m
0 11.12.2017 10:00 0 0 67,97 8,56
1 11.12.2017 09:30 0 0 70,38 7,79
2 11.12.2017 09:00 0 0 74,61 6,45
3 11.12.2017 08:30 0 0 75,09 6,19
4 11.12.2017 08:00 0 0 74,78 6,13
5 11.12.2017 07:30 0 0 75,59 5,71
6 11.12.2017 07:00 0 0 80,19 4,16
7 11.12.2017 06:30 0 0 80,45 3,89
8 11.12.2017 06:00 0 0 78,9 4,03
9 11.12.2017 05:30 0 0 77,42 4,37
10 11.12.2017 05:00 0 0 76,68 4,45
11 11.12.2017 04:30 0 0 77,38 4,21
12 11.12.2017 04:00 0 0,2 79,5 3,45
13 11.12.2017 03:30 0 0,4 79,82 3,14
14 11.12.2017 03:00 2 0,6 80,77 2,94
15 11.12.2017 02:30 5 0,6 80,84 2,9
16 11.12.2017 02:00 10 0,6 82,95 2,54
17 11.12.2017 01:30 3 0,4 84,41 2,13
18 11.12.2017 01:00 2 0,2 85,04 1,97
19 11.12.2017 00:30 3 0,4 84,25 2,13
20 11.12.2017 00:00 1 0,6 82,66 2,29
21 10.12.2017 23:30 10 0,6 82,43 2,22
22 10.12.2017 23:00 7 0,4 82,64 1,99
23 10.12.2017 22:30 0,6 81,66 1,94
24 10.12.2017 22:00 0,6 80,64 1,97
25 10.12.2017 21:30 0,6 79,3 2,05
26 10.12.2017 21:00 0,6 77,28 2,33
27 10.12.2017 20:30 0,4 76,46 2,21
28 10.12.2017 20:00 0 0 76,48 1,86
29 10.12.2017 19:30 0 0 76,87 1,41
30 10.12.2017 19:00 0,2 75,83 1,28
31 10.12.2017 18:30 0 0 71,75 1,85
32 10.12.2017 18:00 0 0 72,55 1,23
33 10.12.2017 17:30 0 0 70,21 1,32
34 10.12.2017 17:00 0 0 68,93 1,31
35 10.12.2017 16:30 0 0 70,52 1,07
36 10.12.2017 16:00 0 0 73,91 0,74
37 10.12.2017 15:30 0 0 77,2 0,07
38 10.12.2017 15:00 0 0 76,63 -0,14
39 10.12.2017 14:30 0 0 74,59 0,13
40 10.12.2017 14:00 0 0 77,02 -0,74
41 10.12.2017 13:30 0 0 75,56 -0,96
42 10.12.2017 13:00 0,2 70,45 -0,19
43 10.12.2017 12:30 0,2 68,54 0,07
44 10.12.2017 12:00 0 0 70,34 -0,61
45 10.12.2017 11:30 0,2 73,99 -1,9
46 10.12.2017 11:00 0 0 74,23 -2,74
© 2011 Ministrstvo za kmetijstvo, gozdarstvo in prehrano. Vse pravice pridržane.